Weather History for Keahole Point, HI

Change the Weather History Date:

Monday, November 19, 2012

  Actual Average Record
Temperature  
Mean Temperature 78 °F -  
Max Temperature 84 °F 81 °F 90 °F (1988)
Min Temperature 73 °F 70 °F 68 °F (1984)
Cooling Degree Days 14    
Growing Degree Days 28 (Base 50)    
Moisture  
Dew Point 64 °F    
Average Humidity 60    
Maximum Humidity 71    
Minimum Humidity 40    
Precipitation  
Precipitation 0.00 in - - ()
Sea Level Pressure  
Sea Level Pressure 30.03 in    
Wind  
Wind Speed 6 mph (SE)    
Max Wind Speed 14 mph    
Max Gust Speed -    
Visibility 10 miles    
Events      
Averages and records for this station are not official NWS values.
T = Trace of Precipitation, MM = Missing Value Source: NWS Daily Summary

Daily Weather History Graph

Daily Weather History Graph

Search for Another Location

Airport:

Trip Planner

Search our weather history database for the weather conditions in past years. The results will help you decide how hot, cold, wet, or windy it might be!

Date:

Astronomy

Nov. 19, 2012 Rise Set
Actual Time 6:35 AM HST 5:43 PM HST
Civil Twilight 6:12 AM HST 6:07 PM HST
Nautical Twilight 5:45 AM HST 6:34 PM HST
Astronomical Twilight 5:18 AM HST 7:00 PM HST
Moon 12:03 PM HST 11:59 PM HST
Length of Visible Light 11h 55m
Length of Day
11h 08m
Waxing Crescent, 43% of the Moon is Illuminated
Nov 19
Waxing Crescent
Nov 20
First Quarter
Nov 28
Full
Dec 6
Last Quarter
Dec 12
New

Hourly Weather History & Observations

Time (HST) Temp. Heat Index Dew Point Humidity Pressure Visibility Wind Dir Wind Speed Gust Speed Precip Events Conditions
12:53 AM 75.9 °F - 61.0 °F 60% 30.02 in 10.0 mi ESE 4.6 mph - N/A   Clear
1:53 AM 75.9 °F - 61.0 °F 60% 30.01 in 10.0 mi ESE 5.8 mph - N/A   Clear
2:53 AM 75.0 °F - 61.0 °F 62% 30.01 in 10.0 mi ESE 6.9 mph - N/A   Clear
3:53 AM 75.0 °F - 62.1 °F 64% 30.01 in 10.0 mi ESE 6.9 mph - N/A   Clear
4:53 AM 75.0 °F - 62.1 °F 64% 30.01 in 10.0 mi ESE 5.8 mph - N/A   Clear
5:53 AM 75.0 °F - 61.0 °F 62% 30.02 in 10.0 mi East 4.6 mph - N/A   Clear
6:53 AM 73.9 °F - 60.1 °F 62% 30.05 in 10.0 mi NE 3.5 mph - N/A   Clear
7:53 AM 78.1 °F - 60.1 °F 54% 30.06 in 10.0 mi Calm Calm - N/A   Clear
8:53 AM 82.0 °F 82.0 °F 57.9 °F 44% 30.07 in 10.0 mi NNE 11.5 mph - N/A   Clear
9:53 AM 84.9 °F 84.2 °F 57.9 °F 40% 30.06 in 10.0 mi NNE 12.7 mph - N/A   Clear
10:53 AM 84.9 °F 85.9 °F 63.0 °F 48% 30.05 in 10.0 mi NNW 12.7 mph - N/A   Clear
11:53 AM 82.9 °F 85.0 °F 66.0 °F 56% 30.03 in 10.0 mi WNW 13.8 mph - N/A   Clear
12:53 PM 82.9 °F 85.0 °F 66.0 °F 56% 30.01 in 10.0 mi West 11.5 mph - N/A   Clear
1:53 PM 82.9 °F 85.4 °F 66.9 °F 58% 29.99 in 10.0 mi West 10.4 mph - N/A   Clear
2:53 PM 82.9 °F 85.4 °F 66.9 °F 58% 29.98 in 10.0 mi West 8.1 mph - N/A   Clear
3:53 PM 81.0 °F 83.3 °F 66.9 °F 62% 29.98 in 10.0 mi WSW 9.2 mph - N/A   Clear
4:53 PM 80.1 °F 82.3 °F 66.9 °F 64% 29.99 in 10.0 mi SW 8.1 mph - N/A   Mostly Cloudy
5:53 PM 79.0 °F - 66.9 °F 66% 30.01 in 10.0 mi South 6.9 mph - N/A   Mostly Cloudy
6:53 PM 79.0 °F - 66.9 °F 66% 30.03 in 10.0 mi South 5.8 mph - N/A   Scattered Clouds
7:53 PM 78.1 °F - 66.9 °F 68% 30.05 in 10.0 mi SSE 5.8 mph - N/A   Clear
8:53 PM 78.1 °F - 66.0 °F 66% 30.06 in 10.0 mi SE 4.6 mph - N/A   Mostly Cloudy
9:53 PM 78.1 °F - 66.0 °F 66% 30.07 in 10.0 mi ESE 3.5 mph - N/A   Overcast
10:53 PM 78.1 °F - 66.9 °F 68% 30.06 in 10.0 mi Calm Calm - N/A   Scattered Clouds
11:53 PM 75.9 °F - 66.0 °F 71% 30.04 in 10.0 mi Calm Calm - N/A   Clear